Home > Weather > St. Augustine > Past weeks

Flag for USA Past Weather in St. Augustine, Florida, USA — Yesterday and Last 2 Weeks

Now
82 °F

Partly cloudy.


Feels Like: 89 °F
Forecast: 78 / 87 °F
Wind: 15 mph from East

Location: St. Augustine Airport

Current Time: Aug 28, 2016 at 5:00:51 AM

Latest Report: Aug 28, 2016 at 3:58 AM


Visibility: 10 mi

Pressure: 30.00 "Hg

Humidity: 82%

Dew Point: 76 °F

Location of St. AugustineLocation

Past Weather in St. Augustine — Graph

°F

St. Augustine Temperature Yesterday

Maximum temperature yesterday: 90 °F (at 1:58 PM)
Minimum temperature yesterday: 79 °F (at 1:58 AM)
Average temperature yesterday: 84 °F

High & Low Weather Summary for the Past Weeks

 TemperatureHumidityPressure
High95 °F (Aug 21, 1:58 PM)94% (Aug 14, 9:58 PM)30.21 "Hg (Aug 14, 9:58 PM)
Low76 °F (Aug 13, 4:58 AM)43% (Aug 21, 1:58 PM)29.90 "Hg (Aug 20, 5:58 PM)
Average84 °F76%30.08 "Hg
* Reported Aug 13 3:58 AM — Aug 28 3:58 AM, St. Augustine, Weather by CustomWeather, © 2016

Note: Actual official high and low records may vary slightly from our data, if they occured in-between our weather recording intervals... More about our weather records

Advertising

St. Augustine Weather History for the Previous 24 Hours

Scroll right to see more
 ConditionsComfort  
Time TempWeatherWind HumidityBarometerVisibility
3:58 AM
Sun, Aug 28
82 °FPartly cloudy.15 mph82%30.00 "Hg10 mi
2:58 AM82 °FPartly cloudy.15 mph82%30.00 "Hg10 mi
1:58 AM83 °FClear.9 mph85%30.01 "Hg10 mi
12:58 AM82 °FPassing clouds.10 mph85%30.01 "Hg10 mi
11:58 PM
Sat, Aug 27
81 °FClear.7 mph85%30.03 "Hg10 mi
10:58 PM83 °FPassing clouds.6 mph82%30.03 "Hg10 mi
9:58 PM83 °FPassing clouds.8 mph85%30.02 "Hg10 mi
8:58 PM83 °FPassing clouds.9 mph88%30.00 "Hg10 mi
7:58 PM83 °FBroken clouds.7 mph79%29.99 "Hg10 mi
6:58 PM85 °FBroken clouds.10 mph75%29.98 "Hg10 mi
5:58 PM87 °FOvercast.10 mph63%29.98 "Hg10 mi
4:58 PM87 °FScattered clouds.13 mph69%29.98 "Hg10 mi
3:58 PM87 °FPassing clouds.13 mph72%29.98 "Hg10 mi
2:58 PM89 °FScattered clouds.13 mph68%30.00 "Hg7 mi
1:58 PM90 °FPassing clouds.15 mph63%30.01 "Hg10 mi
12:58 PM87 °FBroken clouds.17 mph72%30.02 "Hg7 mi
11:58 AM86 °FBroken clouds.16 mph75%30.03 "Hg7 mi
10:58 AM85 °FBroken clouds.15 mph75%30.03 "Hg10 mi
9:58 AM84 °FPartly sunny.14 mph77%30.03 "Hg7 mi
8:58 AM83 °FPartly sunny.15 mph82%30.02 "Hg7 mi
7:58 AM82 °FPassing clouds.14 mph82%30.01 "Hg7 mi
6:58 AM81 °FOvercast.15 mph79%29.99 "Hg7 mi
5:58 AM81 °FPassing clouds.16 mph77%29.98 "Hg10 mi
Weather by CustomWeather, © 2016

See weather overviewHow to use our weather pages